Lapse_Rate
5.7 6.0 5.9 5.5 5.6 5.5 5.3 5.2 5.5 5.8 5.6 5.4 5.0 4.9 4.2 3.9 3.5 3.3 3.2 3.2 3.0 4.1 4.8 5.6 6.0 6.1 6.5 6.7 6.9 7.2 7.0 6.7 6.8 6.8 6.9 6.8 6.6 6.9 6.7 6.7 6.6 6.6 6.3 5.9 6.4 7.1 7.2
5.9 5.9 5.8 5.7 5.7 5.8 5.8 5.6 5.6 5.8 5.8 5.4 5.2 4.8 4.4 4.1 3.5 3.5 3.2 3.3 3.1 4.2 4.7 5.5 6.0 6.0 6.4 6.7 6.9 7.1 7.0 6.9 6.9 6.9 7.0 6.8 6.9 6.8 6.7 6.7 6.8 6.5 6.6 6.0 6.3 6.7 6.9
6.3 6.1 6.0 5.8 5.7 5.5 5.8 6.0 5.5 5.5 5.7 5.4 5.3 4.9 4.3 4.3 3.7 3.5 3.3 3.3 3.2 4.0 4.5 5.6 5.9 6.0 6.4 6.7 6.8 7.2 7.3 6.9 6.9 6.7 6.9 6.9 6.8 6.6 6.6 6.5 6.6 6.4 6.3 6.3 5.5 6.4 6.4
6.6 6.4 6.4 6.2 5.9 5.8 5.8 6.1 5.7 5.6 5.8 5.2 5.3 4.9 4.6 4.2 3.8 3.6 3.3 3.3 3.2 4.0 4.6 5.4 5.7 5.9 6.7 6.8 7.0 7.0 6.9 7.0 7.0 7.2 6.6 6.8 6.6 6.4 6.4 6.5 6.7 6.3 5.9 5.7 6.4 6.1 6.1
6.6 6.6 6.5 6.4 6.0 6.1 5.7 5.6 5.7 5.6 5.7 5.4 5.3 5.0 5.0 4.2 4.0 3.5 3.4 3.4 3.4 4.0 4.7 5.4 5.5 5.9 6.4 6.9 7.1 7.0 6.8 6.9 6.7 7.1 6.9 6.7 6.5 6.4 6.7 6.4 6.5 6.2 5.7 5.7 5.7 5.5 5.4
7.2 6.8 6.8 6.4 6.3 6.4 5.9 5.9 5.4 5.4 5.3 5.2 5.2 5.0 5.2 4.3 4.0 3.5 3.5 3.5 3.6 4.3 4.7 5.4 5.7 5.6 6.4 6.9 6.9 6.8 7.0 6.9 6.8 6.8 7.1 6.4 6.9 6.2 5.9 6.6 6.4 5.8 5.7 6.0 5.7 6.0 5.9
7.3 7.3 7.1 6.6 6.0 6.2 6.4 5.9 5.3 5.2 5.3 5.1 5.2 5.1 5.1 4.5 4.0 3.5 3.5 3.5 3.7 4.4 4.8 5.4 5.3 5.9 6.7 6.9 7.0 7.1 7.1 6.6 6.5 6.6 6.7 6.4 6.2 6.2 6.6 6.4 6.5 6.9 5.9 6.4 6.1 5.8 5.5
7.3 7.5 7.3 7.1 6.7 5.7 5.6 6.1 5.7 5.5 5.5 5.2 5.1 5.1 5.0 4.5 4.0 3.4 3.4 3.4 3.6 4.3 4.6 5.4 5.3 6.3 6.8 6.6 7.0 6.7 6.5 6.6 6.6 6.6 6.4 6.5 6.3 6.5 6.7 6.6 6.9 6.6 5.9 5.8 5.8 6.2 5.7
7.5 7.4 7.4 7.4 6.9 6.2 5.6 5.8 6.0 5.4 5.5 5.3 4.9 5.2 5.0 4.5 4.0 3.4 3.4 3.2 3.6 4.4 4.9 5.5 5.5 6.3 6.5 6.5 6.4 6.2 6.5 6.6 6.5 6.6 6.3 6.6 6.4 6.3 6.5 6.5 6.6 6.7 6.4 6.0 6.2 6.1 5.8
7.7 8.0 7.8 7.3 7.2 6.3 5.9 5.5 5.8 5.2 5.3 5.4 5.0 5.2 4.9 4.4 4.0 3.4 3.3 3.3 3.7 4.3 4.7 5.3 5.7 6.1 6.1 6.4 6.2 6.5 6.4 6.8 6.6 6.5 6.4 6.4 6.4 6.5 6.4 6.6 7.1 7.1 7.1 6.8 6.6 6.0 6.5
6.8 7.3 7.8 7.3 6.8 5.8 6.0 5.8 5.9 5.4 5.5 5.3 5.2 5.3 5.0 4.3 3.9 3.5 3.3 3.4 3.7 4.2 3.1 5.3 5.6 6.3 6.3 6.5 6.5 6.7 6.8 6.5 6.3 6.3 6.2 6.4 6.6 6.6 6.9 6.6 7.0 7.1 6.6 6.8 7.1 6.8 6.8
6.1 6.3 6.9 6.9 6.5 5.4 5.5 5.8 5.8 5.2 5.3 5.2 5.1 5.3 5.0 4.3 3.8 3.4 3.2 3.5 3.5 4.1 3.5 5.5 5.8 6.1 6.3 6.6 6.8 6.8 6.8 6.4 6.5 6.4 6.3 6.4 6.4 6.7 6.8 7.0 7.2 7.1 7.2 6.9 6.6 6.7 6.4
3.7 4.6 5.0 5.9 6.1 5.2 5.7 5.8 5.7 5.7 5.7 5.3 5.1 5.3 4.9 4.3 3.7 3.3 3.2 3.4 3.3 4.0 5.1 5.3 5.6 5.9 6.2 6.4 6.5 6.7 6.6 6.7 6.7 6.6 6.4 6.5 6.7 6.6 6.7 7.0 7.3 7.6 7.3 6.9 6.6 5.8 5.9
3.4 3.5 3.4 3.5 3.7 5.0 5.8 5.6 6.0 5.8 6.0 5.4 5.2 5.3 4.7 4.3 3.8 3.2 3.2 3.1 2.9 3.7 4.7 5.5 5.5 5.7 6.2 6.1 6.2 6.5 6.3 6.5 6.4 6.7 6.4 6.1 6.1 6.7 6.4 6.7 6.9 7.2 7.8 7.5 6.3 5.5 5.8
4.2 4.0 3.7 4.0 4.0 4.5 5.5 5.9 6.5 5.4 5.8 5.4 5.2 5.3 4.6 4.2 3.7 3.2 3.1 3.0 2.8 3.5 4.4 5.4 5.5 5.5 5.7 6.1 6.1 6.0 6.4 6.3 6.5 6.7 6.8 6.2 6.3 6.6 6.8 7.0 7.2 7.1 6.9 6.9 7.2 7.2 6.6
4.9 5.1 4.9 4.6 4.7 4.7 5.3 6.3 6.3 5.2 5.4 5.3 5.1 5.0 4.5 4.1 3.6 3.1 3.0 2.6 2.5 3.1 4.3 5.7 6.0 6.0 5.7 5.9 6.0 5.9 6.1 6.3 6.6 6.7 6.8 6.6 6.2 6.3 6.7 6.9 7.2 7.0 6.9 7.1 7.0 5.6 7.0
6.4 6.5 5.3 4.2 4.5 5.1 5.3 5.3 6.4 5.1 5.2 5.1 4.9 4.7 4.4 4.1 3.6 3.1 3.0 2.5 2.3 2.7 3.9 5.2 6.1 6.2 6.1 5.9 6.0 5.9 6.1 6.2 6.5 6.7 6.7 6.7 6.8 6.2 6.5 6.9 7.0 6.9 6.9 7.2 7.3 7.2 5.8
7.5 7.1 6.1 4.8 5.4 5.1 5.1 4.6 4.4 5.0 5.0 4.7 4.9 4.6 4.4 4.1 3.4 3.2 3.0 2.5 2.1 2.5 3.5 5.2 6.0 6.3 6.4 6.3 6.1 6.4 6.4 6.4 6.2 6.4 6.5 6.6 6.5 6.2 6.3 6.7 6.7 7.0 7.1 7.3 7.3 7.2 7.3
7.4 7.0 6.4 5.4 4.7 4.5 4.9 5.1 5.5 5.0 5.1 4.8 4.9 4.6 4.2 3.9 3.5 3.6 2.7 2.4 2.2 2.3 3.0 4.2 5.9 6.3 6.2 6.5 6.5 6.5 6.0 6.1 6.2 6.1 6.4 6.6 6.4 6.1 6.1 6.3 6.5 6.7 7.0 7.2 7.2 7.2 7.1
6.9 6.7 6.0 5.0 3.9 5.1 5.2 6.0 5.1 5.0 5.0 4.9 5.0 4.5 4.4 4.0 3.6 3.6 2.7 2.2 2.2 2.2 2.8 3.7 5.2 6.2 6.1 6.3 6.4 6.3 5.9 5.9 5.8 6.1 6.5 6.5 6.5 6.5 6.5 6.7 6.9 6.9 7.1 7.0 6.8 6.6 7.1
6.4 6.3 5.5 4.8 4.6 4.9 5.2 5.3 5.3 5.0 5.0 4.9 5.3 4.6 4.7 4.5 4.1 3.9 2.3 2.0 2.1 2.1 2.4 3.1 4.2 5.6 6.1 6.1 6.3 6.3 5.8 5.8 5.8 6.0 6.2 6.3 6.4 6.5 6.6 6.8 6.9 6.9 7.1 7.0 6.7 7.2 6.7
6.1 6.1 5.4 3.8 4.1 4.0 4.2 4.6 5.2 5.2 4.9 5.0 5.3 4.6 4.3 4.0 4.0 3.6 2.4 2.1 2.1 2.2 2.5 2.9 3.6 4.5 5.8 6.2 6.3 6.3 6.4 6.2 5.8 5.8 6.1 6.3 6.3 6.4 6.5 6.7 6.7 6.7 6.8 6.9 6.6 6.6 6.6
5.9 5.3 4.9 4.5 4.1 4.6 5.9 5.2 4.8 4.9 4.9 4.9 5.0 4.5 4.2 4.0 3.6 3.5 3.2 2.4 2.2 2.3 2.4 2.9 3.0 3.4 4.6 5.6 6.2 6.5 6.4 6.7 6.5 6.2 6.1 6.2 6.5 6.4 6.2 6.4 6.4 6.4 6.9 6.9 7.0 7.0 7.0
5.3 4.8 4.0 4.0 4.6 5.2 4.5 4.8 4.9 4.9 4.9 5.2 4.7 4.1 4.1 3.9 3.6 3.4 2.8 2.4 2.2 2.4 2.6 2.6 2.8 3.2 3.7 4.3 5.5 6.2 6.3 6.5 6.5 6.4 6.2 6.3 6.2 6.1 6.3 6.0 5.1 6.9 6.9 6.9 7.0 6.7 6.5
4.8 4.5 4.3 4.4 4.6 4.2 3.9 3.9 4.4 4.8 5.1 4.7 4.0 3.8 3.8 3.6 3.5 2.7 2.4 2.3 2.3 2.3 2.5 2.7 2.7 3.0 3.2 3.7 4.5 5.3 6.0 6.3 6.3 6.4 6.2 6.3 6.3 6.2 6.2 5.9 6.3 6.7 6.7 6.6 6.7 6.4 6.1
4.3 5.0 4.0 4.5 4.4 4.0 4.7 4.6 4.1 4.7 5.2 4.5 3.8 3.7 3.7 3.5 3.3 3.0 2.5 2.4 2.5 2.5 2.6 2.7 2.7 2.8 2.9 3.3 4.0 4.7 5.6 6.2 6.4 6.3 6.3 6.2 6.3 6.3 6.0 6.1 6.0 6.3 6.5 6.5 6.3 6.0 6.0
4.1 4.1 3.9 4.5 4.4 5.1 4.9 4.5 4.0 4.8 5.2 4.2 3.8 3.6 3.6 3.4 3.5 3.2 2.8 2.6 2.5 2.6 2.6 2.7 2.7 2.6 2.9 3.0 3.4 4.1 4.7 5.7 6.2 6.5 6.7 6.3 6.1 6.2 6.1 6.0 6.2 6.0 6.2 6.4 6.2 6.0 6.2
3.8 3.4 4.1 4.5 4.5 5.0 5.0 4.2 4.0 4.6 5.2 4.4 3.8 3.8 3.5 3.6 3.4 3.2 3.1 2.8 2.7 2.7 2.9 3.0 2.7 2.6 2.7 2.9 3.3 3.7 4.2 5.0 5.4 6.3 6.7 6.9 6.6 6.4 6.3 6.0 5.9 6.2 6.1 6.2 6.2 6.2 5.9
3.8 4.1 4.4 4.4 4.6 3.9 4.4 4.1 4.2 4.7 4.6 4.3 3.8 3.7 3.7 3.4 3.3 3.2 3.1 2.8 2.7 2.8 3.0 3.0 3.2 3.1 3.1 3.0 3.1 3.5 3.8 4.2 4.9 5.5 6.0 6.7 6.9 6.8 6.7 6.4 6.4 6.1 6.2 6.2 6.1 6.0 5.9
Wind_Speed
23 21 20 22 16 15 15 14 12 12 13 13 14 16 16 14 13 14 14 17 11 11 13 14 14 15 5 3 3 7 10 5 4 3 2 4 6 6 7 7 8 2 8 6 7 13 6
25 25 22 23 20 19 16 15 13 12 13 14 14 16 15 15 14 14 14 16 15 11 12 13 13 12 2 4 1 7 5 5 5 4 1 5 4 3 4 5 10 5 5 4 6 6 7
25 25 25 25 24 20 17 16 14 12 13 14 14 15 16 15 14 15 15 16 15 14 13 12 11 5 5 12 4 2 4 2 2 1 3 2 8 6 4 6 11 7 4 3 7 2 5
30 28 27 29 26 20 19 18 13 13 13 13 13 13 15 14 14 16 16 17 16 14 14 13 9 4 5 2 3 8 7 2 5 3 1 1 6 9 5 4 6 7 5 3 5 3 5
35 32 30 26 23 21 19 18 13 14 13 13 14 13 14 12 15 15 16 16 17 14 13 9 4 4 5 2 2 5 4 4 5 2 2 2 3 4 2 4 5 0 4 5 2 9 7
40 34 32 32 21 20 20 19 16 15 14 13 12 12 12 13 13 14 17 20 14 9 7 7 6 6 1 4 4 3 5 9 1 1 2 1 5 5 4 7 8 7 6 5 3 4 5
37 39 36 34 32 24 24 20 18 14 14 12 11 11 11 11 12 13 9 4 4 1 3 6 3 6 0 0 2 1 5 4 2 1 4 1 3 7 10 7 12 10 6 8 6 5 2
38 35 36 37 37 35 24 23 19 14 14 12 10 9 10 10 12 11 3 2 3 3 4 6 5 2 2 3 2 2 3 3 1 2 3 4 2 5 6 7 17 14 10 4 3 12 5
39 38 35 34 37 38 25 25 20 15 14 13 8 8 8 8 9 5 3 3 2 4 2 2 2 3 1 5 3 2 2 1 2 5 4 6 3 8 5 6 14 9 15 11 2 6 2
38 38 37 36 35 38 33 24 21 17 14 12 8 7 6 7 4 3 1 3 2 2 3 1 2 2 0 1 2 2 1 2 5 2 7 3 5 4 7 14 8 6 18 16 17 4 2
39 39 37 36 34 32 37 26 22 18 13 11 9 6 5 5 3 1 2 2 1 3 3 1 2 2 1 2 2 2 3 3 5 7 4 3 4 4 8 6 5 0 19 16 12 12 1
39 37 42 36 35 31 32 28 23 18 14 11 9 5 6 3 2 2 3 2 3 4 2 1 3 2 1 3 4 3 3 5 3 6 6 5 2 4 1 4 6 5 14 8 5 3 3
36 38 39 40 39 32 30 27 25 20 17 12 8 7 8 6 3 6 3 2 3 4 3 3 5 4 4 0 3 1 1 1 0 4 5 5 6 4 1 4 7 6 6 3 4 3 4
33 36 38 44 48 35 35 33 28 23 16 11 7 10 5 2 5 5 2 2 2 4 5 3 7 4 2 1 3 3 1 2 3 4 4 4 2 7 8 3 1 2 4 4 5 4 4
35 34 37 38 44 33 33 34 29 24 20 12 11 2 2 3 7 2 2 2 3 6 5 8 10 8 1 1 1 1 2 5 3 1 5 4 2 3 2 4 3 4 3 3 4 3 4
36 35 36 38 39 36 26 26 31 28 24 17 2 3 3 9 5 2 2 3 3 3 4 6 4 5 5 6 4 1 2 3 3 3 1 5 5 2 4 3 1 2 2 3 3 3 2
36 37 37 37 38 36 33 24 30 31 29 23 2 3 3 11 2 1 3 4 5 4 3 5 3 5 5 6 5 4 2 2 1 1 4 2 3 1 2 2 1 3 2 3 3 4 4
37 38 40 38 38 36 29 46 31 34 34 13 3 3 4 4 3 3 4 5 1 5 1 2 2 2 6 6 6 5 5 1 2 5 1 2 4 3 2 1 1 2 1 3 4 4 0
39 39 39 37 42 42 38 38 37 35 33 6 4 3 1 2 3 4 4 4 3 5 4 4 3 2 3 4 5 5 5 3 3 3 1 2 2 3 2 4 3 3 4 3 2 2 2
39 39 37 36 39 40 43 36 37 36 36 4 4 4 2 2 2 4 5 6 4 2 4 2 2 3 1 2 3 4 3 1 4 3 4 3 3 5 5 4 4 4 5 5 5 3 3
37 38 39 38 41 39 35 27 36 36 38 4 3 4 5 5 6 6 2 4 7 4 2 4 1 3 3 3 3 4 7 3 4 2 3 3 3 2 1 3 2 2 5 8 7 6 5
36 37 38 36 43 42 44 34 33 34 28 1 4 4 3 4 4 10 4 5 12 6 6 4 2 6 4 4 2 5 9 5 4 2 3 2 2 2 3 0 2 3 5 5 7 5 7
36 36 38 37 43 41 22 36 32 32 18 3 2 1 4 7 5 6 4 5 8 8 2 4 5 6 6 4 2 2 2 6 8 7 5 5 4 3 3 3 2 5 8 9 5 4 8
35 34 37 35 38 34 3 28 31 31 16 2 3 3 3 3 6 7 4 6 8 4 6 3 7 5 3 2 2 3 6 8 7 3 3 4 4 2 2 2 0 6 2 1 11 5 6
36 34 34 34 36 37 29 21 25 26 29 3 2 2 3 3 3 4 3 5 7 6 4 4 4 2 2 3 4 4 3 3 3 5 5 4 3 2 3 2 4 2 3 3 3 3 4
34 34 34 34 38 36 33 26 27 25 25 2 2 1 3 5 1 3 5 6 5 4 3 3 2 1 3 2 2 4 4 4 3 1 4 4 3 3 2 2 4 4 3 2 3 1 5
33 31 33 38 44 30 20 28 28 24 21 2 1 3 3 4 3 4 3 4 3 4 4 3 3 3 3 2 2 3 3 5 5 7 5 3 2 4 3 2 5 4 2 2 3 3 3
31 29 27 33 28 25 29 26 23 21 21 3 1 2 3 3 4 6 5 4 3 2 4 4 4 3 2 2 3 3 3 4 4 6 6 6 5 4 3 2 5 2 3 1 2 4 6
28 26 23 29 20 4 22 21 19 13 18 7 3 3 5 5 3 3 8 5 4 2 3 4 3 2 2 3 0 1 0 1 4 3 1 2 5 4 6 4 2 6 9 4 6 5 5
Wind_Direction
287 284 271 263 254 257 263 271 284 289 296 305 311 315 321 319 320 321 326 314 304 302 307 311 318 328 349 319 263 59 2 19 21 56 338 306 294 205 185 179 155 193 174 197 331 305 274
294 291 282 269 242 244 247 260 270 282 292 301 308 310 316 319 317 320 316 312 308 305 302 306 317 334 273 269 123 65 349 32 3 61 291 2 319 301 241 189 180 132 79 140 284 329 300
295 294 293 286 248 237 244 249 261 274 286 293 307 315 320 321 323 323 317 311 301 303 307 298 309 315 262 254 4 45 308 122 71 66 191 66 357 335 4 193 136 125 105 102 232 17 331
309 298 296 296 294 234 238 246 253 264 274 289 301 310 312 321 321 324 313 306 297 293 294 294 292 304 253 328 24 25 357 129 109 45 91 235 344 300 257 317 73 106 81 62 325 205 333
329 321 303 298 298 233 236 244 247 261 270 279 291 304 312 315 319 323 313 300 294 286 281 277 262 203 269 346 334 345 339 320 124 124 228 13 320 257 175 234 109 292 131 151 347 203 222
335 328 331 307 284 247 236 238 238 249 259 273 286 301 313 318 327 327 311 301 281 289 278 234 244 274 269 301 294 306 287 297 106 170 88 273 197 217 187 203 177 148 134 167 180 21 110
329 332 330 331 304 247 238 230 238 237 252 264 279 300 308 313 322 320 326 346 43 26 257 202 230 294 137 340 304 258 287 198 109 297 140 1 93 194 207 214 139 124 89 166 192 220 144
325 324 324 327 320 309 237 229 229 228 248 258 274 294 305 322 318 314 335 270 107 192 316 251 247 122 140 161 29 18 249 222 87 75 129 92 283 230 256 157 124 105 90 79 172 181 222
323 320 318 321 320 318 244 231 221 222 236 250 265 283 300 319 314 301 197 289 56 20 239 168 123 228 155 184 126 242 207 52 163 103 148 162 174 234 119 218 140 151 172 165 178 140 282
326 324 317 317 320 321 296 222 218 217 219 233 246 269 288 310 301 225 156 123 26 38 81 74 204 252 353 240 53 251 224 305 48 62 100 53 193 204 115 175 219 191 174 152 123 104 143
323 321 318 316 308 314 334 212 212 207 211 220 232 250 265 248 291 184 160 126 346 53 61 317 111 151 261 136 198 293 205 242 96 79 178 45 97 90 66 327 137 284 135 144 148 138 210
319 322 326 319 310 307 318 258 200 197 194 221 224 226 233 137 252 241 123 23 51 49 261 219 130 160 98 183 188 210 245 224 244 44 92 83 111 54 279 319 106 219 89 70 77 81 44
315 318 324 324 317 296 298 281 188 194 181 214 216 219 187 185 187 154 120 77 45 111 278 197 167 159 138 17 28 224 178 52 129 79 31 23 33 342 325 20 10 66 69 44 26 37 213
323 321 330 338 323 296 308 302 185 186 164 198 210 175 227 191 148 139 86 91 100 183 197 188 133 115 109 85 12 314 192 70 356 76 83 72 29 343 346 43 241 71 91 151 156 176 222
331 328 331 325 318 296 304 305 181 167 151 180 180 197 194 187 128 79 130 119 207 214 150 158 154 149 178 208 123 282 236 173 222 193 115 122 45 317 1 339 19 314 50 200 110 67 87
326 330 326 317 319 328 309 285 174 159 142 173 188 173 135 142 121 123 153 258 203 260 140 174 177 176 144 173 134 256 221 32 158 238 286 166 105 314 312 321 328 92 241 56 6 112 170
329 327 323 322 327 316 313 334 172 156 141 179 177 142 159 131 86 88 189 232 206 241 49 164 223 195 136 148 151 201 125 320 71 261 33 121 92 268 70 324 297 9 31 44 99 129 165
327 325 326 324 329 316 302 312 184 159 143 169 183 168 156 123 150 229 193 198 272 163 99 41 219 268 154 149 164 184 173 99 195 154 88 43 111 111 174 188 5 60 290 126 119 268 43
324 323 323 325 330 321 314 289 172 166 143 136 148 123 141 176 179 195 266 199 217 145 192 194 238 46 12 148 123 136 120 311 165 125 127 141 125 98 360 351 336 225 212 215 120 61 209
321 320 321 324 325 322 320 161 168 169 157 148 135 141 144 203 232 210 202 190 183 115 216 170 43 46 53 88 104 120 104 323 72 90 60 67 143 156 181 201 150 190 204 208 134 117 200
317 317 320 322 325 319 314 192 172 171 174 160 167 190 170 171 219 217 262 202 163 158 259 159 239 203 198 138 96 110 116 112 59 65 35 92 94 86 349 52 56 205 205 202 183 204 183
313 312 316 324 326 319 310 188 178 171 176 114 155 148 136 173 177 187 220 230 181 161 150 196 176 204 112 94 66 154 137 178 182 185 141 142 163 96 342 143 350 309 281 239 234 214 243
309 311 317 325 325 325 198 170 175 175 169 149 203 350 121 144 141 148 218 200 178 122 72 152 184 115 106 135 107 79 186 181 156 148 170 151 128 97 262 352 3 297 223 217 218 208 207
309 312 314 320 320 328 205 172 178 182 179 122 193 123 112 166 150 193 191 206 141 117 134 57 62 96 200 4 336 33 57 91 99 112 162 132 115 99 181 41 309 249 65 278 221 245 224
306 310 313 318 317 313 319 217 185 190 202 37 347 125 133 124 145 189 145 120 90 68 91 86 55 134 97 102 88 78 13 50 70 53 36 95 104 171 129 194 277 276 243 204 159 48 359
306 311 315 316 311 302 294 203 183 192 208 37 9 350 89 120 244 311 122 140 130 116 56 69 66 353 99 105 119 150 179 167 151 83 61 97 120 129 172 173 244 230 193 141 97 169 12
307 312 319 323 310 288 189 180 179 184 198 120 25 32 80 104 5 351 109 158 114 119 116 127 152 70 46 101 123 154 218 154 156 164 165 130 140 179 227 237 278 225 178 54 104 204 60
306 310 321 326 317 156 157 172 163 184 182 98 356 355 96 93 26 11 31 45 27 67 129 200 84 355 50 133 139 226 145 217 131 171 170 160 162 187 163 184 278 117 57 136 155 40 67
304 310 311 309 312 77 148 154 150 181 161 112 81 55 73 76 112 86 75 52 53 25 135 39 125 92 131 96 282 115 115 65 150 188 45 175 178 180 162 206 177 48 102 71 66 71 22